Skip Page Navigation
NASA JPL Caltech
NASA Logo - Jet Propulsion Laboratory + View the NASA Portal
+ Center for Near-Earth Object Studies
JPL Home Earth Solar System Stars & Galaxies Technology
JPL Solar System Dynamics
BODIES ORBITS EPHEMERIDES TOOLS PHYSICAL DATA DISCOVERY FAQ SITE MAP
IMPORTANT: The SSD Announcement email list is now available. Major changes are coming in the near future, including possible hostname and/or URL changes. To be notified of such changes, subscribe to this email list.

Please visit this page for more details.


JPL Small-Body Database Browser
Search: [ help ]  
212593 (2006 SF206)
Classification: Main-belt Asteroid          SPK-ID: 2212593
Ephemeris | Orbit Diagram | Orbital Elements | Mission Design | Physical Parameters | Discovery Circumstances | Close-Approach Data ]

[ show orbit diagram ]
Orbital Elements at Epoch 2459000.5 (2020-May-31.0) TDB
Reference: JPL 11 (heliocentric ecliptic J2000)
 Element Value Uncertainty (1-sigma)   Units 
e .05391847371841586 7.0758e-08  
a 3.021900889180369 3.2359e-08 au
q 2.85896460550744 2.1018e-07 au
i 2.613217498801181 7.8415e-06 deg
node 18.27194810854223 0.000139 deg
peri 23.05388654460995 0.00015872 deg
M 195.6568182957537 7.3947e-05 deg
tp 2459876.427056579221
(2022-Oct-23.92705658)
0.00039695 TDB
period 1918.751584936437
5.25
3.082e-05
8.438e-08
d
yr
n .1876219948565806 3.0137e-09 deg/d
Q 3.184837172853299 3.4104e-08 au
  Orbit Determination Parameters
   # obs. used (total)      180  
   data-arc span      8090 days (22.15 yr)  
   first obs. used      1998-03-01  
   last obs. used      2020-04-24  
   planetary ephem.      DE431  
   SB-pert. ephem.      SB431-N16  
   condition code      0  
   norm. resid. RMS      .57851  
   source      ORB  
   producer      Otto Matic  
   solution date      2020-May-21 08:47:21  

Additional Information
 Earth MOID = 1.86701 au 
 Jupiter MOID = 2.05335 au 
 T_jup = 3.242 
[ show covariance matrix ]

Ephemeris | Orbit Diagram | Orbital Elements | Mission Design | Physical Parameters | Discovery Circumstances | Close-Approach Data ]

Physical Parameter Table
Parameter Symbol Value Units Sigma Reference Notes
absolute magnitude H 16.2   n/a MPO433389  

212593 (2006 SF206)          Discovered 2006-Sep-25 by Mt. Lemmon Survey at Mount Lemmon
Reference: 20090409/Numbers.arcLast Updated: 2009-04-10

[ show close-approach data ]
Ephemeris | Orbit Diagram | Orbital Elements | Mission Design | Physical Parameters | Discovery Circumstances | Close-Approach Data ]
ABOUT SSD CREDITS/AWARDS PRIVACY/COPYRIGHT GLOSSARY LINKS
FirstGov 2020-May-28 05:51 UT
(server date/time)  
NASA Home Page
Site Manager:   Ryan S. Park
Webmaster  Alan B. Chamberlin